Location: Delia
(51.6321°N, 112.3740°W)
Time: 19:44:12
(UTC+00:00)

Envisat - Pass Details

Date: 04 December 2021
Orbit: 764 x 766 km, 98.2° (Epoch: 26 January)

Event Time Altitude Azimuth Distance (km) Brightness Sun altitude
Rises 00:07:58 0° 186° (S) 3,221 6.7 -6.9°
Reaches altitude 10° 00:10:23 10° 194° (SSW) 2,300 6.1 -7.2°
Maximum altitude 00:15:08 40° 263° (W) 1,128 4.6 -7.9°
Drops below altitude 10° 00:19:56 10° 333° (NNW) 2,317 5.5 -8.6°
Sets 00:22:24 0° 341° (NNW) 3,248 6.2 -8.9°
